Regional Weather Roundup
Issued by NWS

Home | Current Version | Previous Version | Graphics & Text | Print | Product List | Glossary On
Versions: 1 2 3 4 5 6 7 8 9 10 11 12 13 14 15 16 17 18 19 20 21 22 23 24 25 26 27 28 29 30 31 32 33 34 35 36 37 38 39 40 41 42 43 44 45 46 47 48 49 50
000
ASUS43 KBIS 020720
RWRND

NORTH DAKOTA REGIONAL WEATHER ROUNDUP
NATIONAL WEATHER SERVICE BISMARCK ND
100 AM CST MON MAR 02 2015

NOTE: "FAIR" INDICATES FEW OR NO CLOUDS BELOW 12,000 FEET WITH NO
SIGNIFICANT WEATHER AND/OR OBSTRUCTIONS TO VISIBILITY.


NDZ001>003-009>011-017-020800-
NORTHWEST NORTH DAKOTA

CITY           SKY/WX    TMP DP  RH WIND       PRES   REMARKS
WILLISTON      PTCLDY    13   8  81 S6        30.21F WCI   4
MINOT          PTCLDY     7   1  76 SW12      30.26F WCI  -8
MINOT AFB      PTCLDY     0  -3  86 SW8       30.26F WCI -14
$$

NDZ018>021-031>035-040>046-020800-
SOUTHWEST NORTH DAKOTA

CITY           SKY/WX    TMP DP  RH WIND       PRES   REMARKS
BISMARCK       PTCLDY     4   1  88 CALM      30.35F
DICKINSON      CLEAR      8   3  80 S10       30.21F WCI  -6
GARRISON         N/A      4   0  83 CALM      30.28F
HETTINGER ARPT CLEAR      9   4  80 SE6       30.25F WCI  -1
$$

NDZ004>008-012>016-024-026-027-054-020800-
NORTHEAST NORTH DAKOTA

CITY           SKY/WX    TMP DP  RH WIND       PRES   REMARKS
GRAND FORKS    CLEAR      3  -1  83 W5        30.37S WCI  -6
GRND FRKS AFB  CLEAR      8   2  75 W7        30.36F WCI  -3
DEVILS LAKE    CLEAR      1  -6  71 CALM      30.31F
$$

NDZ022-023-025-028>030-036>039-047>053-020800-
SOUTHEAST NORTH DAKOTA

CITY           SKY/WX    TMP DP  RH WIND       PRES   REMARKS
FARGO          CLEAR      4  -2  76 SW9       30.40S WCI -10
JAMESTOWN      PTCLDY     5   1  83 SW6       30.34F WCI  -6
$$




USA.gov is the U.S. government's official web portal to all federal, state and local government web resources and services.